| time (UTC) | temp F | wind direction | speed MPH | gust MPH | rain 1hr in | rain 24hr in | rain mn in | humidity % | barometer mb |
| 20260906183022 | 87 | 248 | 3.0 | 7.0 | 0.00 | 0.00 | 0.00 | 64 | 1020.1 |
| 20260906182523 | 87 | 257 | 3.0 | 6.0 | 0.00 | 0.00 | 0.00 | 62 | 1017.6 |
| 20260906182023 | 87 | 258 | 3.0 | 6.0 | 0.00 | 0.00 | 0.00 | 62 | 1017.7 |
| 20260906181520 | 87 | 264 | 3.0 | 5.0 | 0.00 | 0.00 | 0.00 | 63 | 1018.1 |
| 20260906181023 | 86 | 259 | 3.0 | 5.0 | 0.00 | 0.00 | 0.00 | 63 | 1018.6 |
| 20260906180524 | 86 | 259 | 3.0 | 6.0 | 0.00 | 0.00 | 0.00 | 63 | 1019.1 |
| 20260906180039 | 86 | 256 | 3.0 | 7.0 | 0.00 | 0.00 | 0.00 | 63 | 1018.8 |
| 20260906175523 | 86 | 252 | 3.0 | 6.0 | 0.00 | 0.00 | 0.00 | 64 | 1019.3 |
| 20260906175023 | 86 | 236 | 2.0 | 6.0 | 0.00 | 0.00 | 0.00 | 64 | 1020.0 |
| 20260906174604 | 85 | 233 | 2.0 | 6.0 | 0.00 | 0.00 | 0.00 | 64 | 1020.9 |
| 20260906174024 | 84 | 244 | 2.0 | 7.0 | 0.00 | 0.00 | 0.00 | 66 | 1025.3 |
| 20260906173544 | 84 | 228 | 2.0 | 6.0 | 0.00 | 0.00 | 0.00 | 67 | 1029.1 |
| 20260906173043 | 84 | 253 | 3.0 | 6.0 | 0.00 | 0.00 | 0.00 | 67 | 1028.1 |
| 20260906172540 | 83 | 250 | 3.0 | 6.0 | 0.00 | 0.00 | 0.00 | 68 | 1033.8 |
| 20260906172020 | 82 | 211 | 2.0 | 5.0 | 0.00 | 0.00 | 0.00 | 70 | 1045.4 |
| 20260906171540 | 81 | 245 | 3.0 | 6.0 | 0.00 | 0.00 | 0.00 | 72 | 1051.9 |
| 20260906171040 | 81 | 253 | 2.0 | 4.0 | 0.00 | 0.00 | 0.00 | 73 | 1056.4 |
| 20260906170523 | 80 | 247 | 2.0 | 5.0 | 0.00 | 0.00 | 0.00 | 74 | 1061.8 |
| 20260906170023 | 80 | 220 | 2.0 | 3.0 | 0.00 | 0.00 | 0.00 | 74 | 1064.1 |
| 20260906165523 | 80 | 235 | 2.0 | 4.0 | 0.00 | 0.00 | 0.00 | 74 | 1063.6 |
| 20260906165021 | 80 | 259 | 3.0 | 5.0 | 0.00 | 0.00 | 0.00 | 74 | 1066.0 |
| 20260906164521 | 80 | 224 | 2.0 | 4.0 | 0.00 | 0.00 | 0.00 | 74 | 1065.7 |
| 20260906164022 | 81 | 264 | 2.0 | 5.0 | 0.00 | 0.00 | 0.00 | 74 | 1062.5 |
| 20260906163525 | 81 | 264 | 3.0 | 5.0 | 0.00 | 0.00 | 0.00 | 73 | 1056.8 |
| 20260906163041 | 82 | 266 | 3.0 | 6.0 | 0.00 | 0.00 | 0.00 | 71 | 1049.1 |
| 20260906162522 | 83 | 255 | 3.0 | 6.0 | 0.00 | 0.00 | 0.00 | 69 | 1037.9 |
| 20260906162022 | 84 | 231 | 2.0 | 6.0 | 0.00 | 0.00 | 0.00 | 67 | 1027.6 |
| 20260906161523 | 85 | 231 | 3.0 | 8.0 | 0.00 | 0.00 | 0.00 | 65 | 1021.8 |
| 20260906161022 | 84 | 253 | 3.0 | 6.0 | 0.00 | 0.00 | 0.00 | 66 | 1024.7 |
| 20260906160522 | 84 | 246 | 3.0 | 7.0 | 0.00 | 0.00 | 0.00 | 66 | 1026.2 |
| 20260906160021 | 83 | 244 | 3.0 | 8.0 | 0.00 | 0.00 | 0.00 | 67 | 1026.8 |
| 20260906155521 | 83 | 249 | 3.0 | 5.0 | 0.00 | 0.00 | 0.00 | 68 | 1030.4 |
| 20260906155022 | 83 | 231 | 3.0 | 6.0 | 0.00 | 0.00 | 0.00 | 68 | 1032.1 |
| 20260906154523 | 83 | 228 | 3.0 | 6.0 | 0.00 | 0.00 | 0.00 | 68 | 1029.6 |
| 20260906154023 | 83 | 233 | 2.0 | 5.0 | 0.00 | 0.00 | 0.00 | 68 | 1030.5 |
| 20260906153524 | 82 | 259 | 3.0 | 7.0 | 0.00 | 0.00 | 0.00 | 68 | 1033.2 |
| 20260906153024 | 82 | 252 | 3.0 | 6.0 | 0.00 | 0.00 | 0.00 | 70 | 1038.4 |
| 20260906152544 | 81 | 254 | 3.0 | 7.0 | 0.00 | 0.00 | 0.00 | 70 | 1037.3 |
| 20260906152022 | 81 | 248 | 3.0 | 7.0 | 0.00 | 0.00 | 0.00 | 69 | 1037.0 |
| 20260906151523 | 81 | 229 | 3.0 | 6.0 | 0.00 | 0.00 | 0.00 | 69 | 1034.5 |
| 20260906151104 | 81 | 240 | 3.0 | 6.0 | 0.00 | 0.00 | 0.00 | 70 | 1037.5 |
| 20260906150543 | 81 | 248 | 3.0 | 7.0 | 0.00 | 0.00 | 0.00 | 70 | 1039.4 |
| 20260906150025 | 80 | 245 | 3.0 | 7.0 | 0.00 | 0.00 | 0.00 | 72 | 1049.1 |
| 20260906145523 | 80 | 236 | 3.0 | 5.0 | 0.00 | 0.00 | 0.00 | 73 | 1052.6 |
| 20260906145025 | 80 | 231 | 3.0 | 6.0 | 0.00 | 0.00 | 0.00 | 72 | 1051.9 |
| 20260906144532 | 80 | 243 | 3.0 | 5.0 | 0.00 | 0.00 | 0.00 | 73 | 858.2 |
| 20260906144032 | 79 | 234 | 3.0 | 4.0 | 0.00 | 0.00 | 0.00 | 74 | 858.1 |
| 20260906143533 | 79 | 256 | 2.0 | 4.0 | 0.00 | 0.00 | 0.00 | 75 | 858.0 |
| 20260906143052 | 79 | 289 | 3.0 | 4.0 | 0.00 | 0.00 | 0.00 | 76 | 858.0 |
| 20260906142532 | 79 | 247 | 2.0 | 3.0 | 0.00 | 0.00 | 0.00 | 76 | 857.9 |
| 20260906142032 | 78 | 270 | 2.0 | 4.0 | 0.00 | 0.00 | 0.00 | 76 | 857.9 |
| 20260906141533 | 78 | 256 | 2.0 | 4.0 | 0.00 | 0.00 | 0.00 | 77 | 857.9 |
| 20260906141033 | 78 | 254 | 2.0 | 3.0 | 0.00 | 0.00 | 0.00 | 78 | 857.8 |
| 20260906140535 | 78 | 216 | 1.0 | 1.0 | 0.00 | 0.00 | 0.00 | 78 | 857.8 |
| 20260906140053 | 77 | 242 | 1.0 | 3.0 | 0.00 | 0.00 | 0.00 | 78 | 857.8 |
| 20260906135533 | 77 | 260 | 1.0 | 2.0 | 0.00 | 0.00 | 0.00 | 79 | 857.8 |
| 20260906135033 | 77 | 270 | 1.0 | 3.0 | 0.00 | 0.00 | 0.00 | 79 | 857.8 |
| 20260906134553 | 77 | 263 | 1.0 | 2.0 | 0.00 | 0.00 | 0.00 | 80 | 857.8 |
| 20260906134034 | 77 | 264 | 1.0 | 2.0 | 0.00 | 0.00 | 0.00 | 80 | 857.8 |
| 20260906133557 | 77 | 257 | 1.0 | 3.0 | 0.00 | 0.00 | 0.00 | 80 | 857.8 |
| 20260906133034 | 77 | 253 | 1.0 | 2.0 | 0.00 | 0.00 | 0.00 | 81 | 857.8 |
| 20260906132534 | 76 | 309 | 1.0 | 2.0 | 0.00 | 0.00 | 0.00 | 81 | 857.8 |
| 20260906132034 | 76 | 290 | 0.0 | 1.0 | 0.00 | 0.00 | 0.00 | 81 | 857.8 |
| 20260906131533 | 76 | 179 | 1.0 | 2.0 | 0.00 | 0.00 | 0.00 | 81 | 857.8 |
| 20260906131034 | 76 | 291 | 1.0 | 2.0 | 0.00 | 0.00 | 0.00 | 82 | 857.8 |
| 20260906130535 | 76 | 293 | 0.0 | 1.0 | 0.00 | 0.00 | 0.00 | 82 | 857.8 |
| 20260906130034 | 76 | 311 | 0.0 | 1.0 | 0.00 | 0.00 | 0.00 | 83 | 857.7 |
| 20260906125534 | 76 | 325 | 0.0 | 1.0 | 0.00 | 0.00 | 0.00 | 83 | 857.7 |
| 20260906125034 | 76 | 330 | 1.0 | 3.0 | 0.00 | 0.00 | 0.00 | 83 | 857.7 |
| 20260906124534 | 76 | 323 | 0.0 | 2.0 | 0.00 | 0.00 | 0.00 | 83 | 857.7 |
| 20260906124034 | 76 | 331 | 1.0 | 1.0 | 0.00 | 0.00 | 0.00 | 84 | 857.7 |
| 20260906123533 | 76 | 201 | 0.0 | 1.0 | 0.00 | 0.00 | 0.00 | 84 | 857.7 |
| 20260906123035 | 76 | 325 | 0.0 | 2.0 | 0.00 | 0.00 | 0.00 | 84 | 857.7 |
| 20260906122534 | 76 | 159 | 0.0 | 1.0 | 0.00 | 0.00 | 0.00 | 84 | 857.7 |
| 20260906122034 | 76 | 330 | 1.0 | 2.0 | 0.00 | 0.00 | 0.00 | 84 | 857.7 |
| 20260906121534 | 76 | 318 | 1.0 | 2.0 | 0.00 | 0.00 | 0.00 | 84 | 857.7 |
| 20260906121055 | 76 | 328 | 1.0 | 2.0 | 0.00 | 0.00 | 0.00 | 84 | 857.7 |
| 20260906120534 | 76 | 328 | 1.0 | 1.0 | 0.00 | 0.00 | 0.00 | 84 | 857.7 |
| 20260906120036 | 76 | 325 | 0.0 | 1.0 | 0.00 | 0.00 | 0.00 | 84 | 857.7 |
| 20260906115556 | 76 | 310 | 0.0 | 0.0 | 0.00 | 0.00 | 0.00 | 84 | 857.7 |
| 20260906115038 | 76 | 324 | 0.0 | 1.0 | 0.00 | 0.00 | 0.00 | 84 | 857.7 |
| 20260906114534 | 76 | 350 | 0.0 | 1.0 | 0.00 | 0.00 | 0.00 | 84 | 857.7 |
| 20260906114055 | 76 | 324 | 0.0 | 1.0 | 0.00 | 0.00 | 0.00 | 84 | 857.7 |
| 20260906113535 | 76 | 284 | 0.0 | 1.0 | 0.00 | 0.00 | 0.00 | 83 | 857.7 |
| 20260906113036 | 76 | 350 | 0.0 | 1.0 | 0.00 | 0.00 | 0.00 | 83 | 857.7 |
| 20260906112536 | 76 | 0.0 | 0.0 | 0.00 | 0.00 | 0.00 | 83 | 857.7 | |
| 20260906112023 | 76 | 0.0 | 0.0 | 0.00 | 0.00 | 0.00 | 83 | 857.7 | |
| 20260906111521 | 76 | 0.0 | 0.0 | 0.00 | 0.00 | 0.00 | 83 | 857.7 | |
| 20260906111020 | 76 | 0.0 | 0.0 | 0.00 | 0.00 | 0.00 | 83 | 857.8 | |
| 20260906110522 | 77 | 0.0 | 0.0 | 0.00 | 0.00 | 0.00 | 82 | 857.8 | |
| 20260906110021 | 77 | 204 | 0.0 | 1.0 | 0.00 | 0.00 | 0.00 | 82 | 857.8 |
| 20260906105521 | 77 | 0.0 | 0.0 | 0.00 | 0.00 | 0.00 | 82 | 857.8 | |
| 20260906105024 | 77 | 292 | 0.0 | 1.0 | 0.00 | 0.00 | 0.00 | 82 | 857.8 |
| 20260906104522 | 77 | 290 | 0.0 | 2.0 | 0.00 | 0.00 | 0.00 | 82 | 857.8 |
| 20260906104021 | 77 | 299 | 0.0 | 1.0 | 0.00 | 0.00 | 0.00 | 82 | 857.8 |
| 20260906103536 | 77 | 286 | 0.0 | 1.0 | 0.00 | 0.00 | 0.00 | 82 | 857.8 |
| 20260906103038 | 77 | 273 | 1.0 | 2.0 | 0.00 | 0.00 | 0.00 | 81 | 857.8 |
| 20260906102541 | 77 | 280 | 1.0 | 2.0 | 0.00 | 0.00 | 0.00 | 81 | 857.8 |
| 20260906102022 | 77 | 280 | 1.0 | 2.0 | 0.00 | 0.00 | 0.00 | 81 | 857.8 |
| 20260906101521 | 77 | 272 | 1.0 | 2.0 | 0.00 | 0.00 | 0.00 | 81 | 857.8 |
| 20260906101021 | 78 | 269 | 1.0 | 2.0 | 0.00 | 0.00 | 0.00 | 81 | 857.8 |
| 20260906100524 | 78 | 253 | 1.0 | 1.0 | 0.00 | 0.00 | 0.00 | 81 | 857.8 |
| 20260906100023 | 78 | 254 | 1.0 | 2.0 | 0.00 | 0.00 | 0.00 | 81 | 857.8 |
| 20260906095523 | 78 | 261 | 1.0 | 2.0 | 0.00 | 0.00 | 0.00 | 80 | 857.8 |
| 20260906095023 | 78 | 267 | 2.0 | 4.0 | 0.00 | 0.00 | 0.00 | 80 | 857.8 |
| 20260906094523 | 78 | 249 | 2.0 | 3.0 | 0.00 | 0.00 | 0.00 | 80 | 857.9 |
| 20260906094044 | 78 | 262 | 2.0 | 3.0 | 0.00 | 0.00 | 0.00 | 80 | 857.9 |
| 20260906093545 | 79 | 263 | 2.0 | 4.0 | 0.00 | 0.00 | 0.00 | 80 | 857.9 |
| 20260906093022 | 79 | 245 | 2.0 | 3.0 | 0.00 | 0.00 | 0.00 | 80 | 857.9 |
| 20260906092522 | 79 | 252 | 2.0 | 3.0 | 0.00 | 0.00 | 0.00 | 80 | 857.9 |
| 20260906092103 | 79 | 249 | 2.0 | 3.0 | 0.00 | 0.00 | 0.00 | 80 | 857.9 |
| 20260906091526 | 79 | 239 | 2.0 | 3.0 | 0.00 | 0.00 | 0.00 | 80 | 857.9 |
| 20260906091026 | 80 | 244 | 2.0 | 3.0 | 0.00 | 0.00 | 0.00 | 80 | 857.9 |
| 20260906090523 | 80 | 247 | 3.0 | 3.0 | 0.00 | 0.00 | 0.00 | 80 | 857.9 |
| 20260906090023 | 80 | 248 | 3.0 | 4.0 | 0.00 | 0.00 | 0.00 | 79 | 857.9 |
| 20260906085523 | 80 | 242 | 3.0 | 4.0 | 0.00 | 0.00 | 0.00 | 78 | 857.9 |
| 20260906085024 | 80 | 238 | 2.0 | 3.0 | 0.00 | 0.00 | 0.00 | 78 | 857.9 |
| 20260906084544 | 80 | 237 | 2.0 | 3.0 | 0.00 | 0.00 | 0.00 | 77 | 858.0 |
| 20260906084024 | 81 | 234 | 3.0 | 5.0 | 0.00 | 0.00 | 0.00 | 77 | 858.0 |
| 20260906083543 | 81 | 242 | 3.0 | 4.0 | 0.00 | 0.00 | 0.00 | 78 | 858.0 |
| 20260906083023 | 81 | 232 | 2.0 | 3.0 | 0.00 | 0.00 | 0.00 | 78 | 858.0 |
| 20260906082524 | 81 | 256 | 3.0 | 4.0 | 0.00 | 0.00 | 0.00 | 78 | 858.0 |
| 20260906082023 | 81 | 239 | 3.0 | 4.0 | 0.00 | 0.00 | 0.00 | 79 | 858.0 |
| 20260906081529 | 81 | 244 | 3.0 | 3.0 | 0.00 | 0.00 | 0.00 | 78 | 858.0 |
| 20260906081025 | 81 | 236 | 2.0 | 3.0 | 0.00 | 0.00 | 0.00 | 77 | 858.0 |
| 20260906080524 | 82 | 243 | 3.0 | 4.0 | 0.00 | 0.00 | 0.00 | 76 | 858.0 |
| 20260906080024 | 82 | 239 | 2.0 | 3.0 | 0.00 | 0.00 | 0.00 | 75 | 858.0 |
| 20260906075524 | 82 | 232 | 3.0 | 4.0 | 0.00 | 0.00 | 0.00 | 76 | 858.0 |
| 20260906075024 | 82 | 231 | 2.0 | 3.0 | 0.00 | 0.00 | 0.00 | 76 | 858.0 |
| 20260906074525 | 82 | 239 | 3.0 | 3.0 | 0.00 | 0.00 | 0.00 | 76 | 858.1 |
| 20260906074029 | 82 | 242 | 3.0 | 4.0 | 0.00 | 0.00 | 0.00 | 76 | 858.1 |
| 20260906073526 | 82 | 236 | 2.0 | 3.0 | 0.00 | 0.00 | 0.00 | 77 | 858.1 |
| 20260906073026 | 82 | 240 | 3.0 | 3.0 | 0.00 | 0.00 | 0.00 | 78 | 858.1 |
| 20260906072545 | 82 | 238 | 3.0 | 4.0 | 0.00 | 0.00 | 0.00 | 78 | 858.1 |
| 20260906072024 | 83 | 234 | 2.0 | 3.0 | 0.00 | 0.00 | 0.00 | 78 | 858.1 |
| 20260906071524 | 83 | 236 | 3.0 | 4.0 | 0.00 | 0.00 | 0.00 | 78 | 858.1 |
| 20260906071026 | 83 | 236 | 2.0 | 3.0 | 0.00 | 0.00 | 0.00 | 78 | 858.1 |
| 20260906070525 | 83 | 237 | 2.0 | 3.0 | 0.00 | 0.00 | 0.00 | 78 | 858.1 |
| 20260906070025 | 83 | 234 | 2.0 | 3.0 | 0.00 | 0.00 | 0.00 | 78 | 858.1 |
| 20260906065545 | 83 | 237 | 2.0 | 4.0 | 0.00 | 0.00 | 0.00 | 77 | 858.1 |
| 20260906065025 | 84 | 239 | 2.0 | 3.0 | 0.00 | 0.00 | 0.00 | 77 | 858.1 |
| 20260906064527 | 84 | 245 | 2.0 | 3.0 | 0.00 | 0.00 | 0.00 | 76 | 858.1 |
| 20260906064026 | 84 | 240 | 2.0 | 3.0 | 0.00 | 0.00 | 0.00 | 76 | 858.2 |
| 20260906063525 | 84 | 236 | 2.0 | 3.0 | 0.00 | 0.00 | 0.00 | 76 | 947.5 |
| 20260906063026 | 84 | 236 | 2.0 | 3.0 | 0.00 | 0.00 | 0.00 | 75 | 1080.1 |
| 20260906062526 | 85 | 237 | 2.0 | 3.0 | 0.00 | 0.00 | 0.00 | 75 | 1078.2 |
| 20260906062045 | 85 | 252 | 2.0 | 4.0 | 0.00 | 0.00 | 0.00 | 74 | 1076.3 |
| 20260906061526 | 85 | 238 | 3.0 | 4.0 | 0.00 | 0.00 | 0.00 | 74 | 1073.8 |
| 20260906061030 | 85 | 236 | 2.0 | 3.0 | 0.00 | 0.00 | 0.00 | 73 | 1070.9 |
| 20260906060527 | 85 | 248 | 2.0 | 3.0 | 0.00 | 0.00 | 0.00 | 73 | 1068.3 |
| 20260906060026 | 86 | 239 | 2.0 | 3.0 | 0.00 | 0.00 | 0.00 | 72 | 1066.4 |
| 20260906055526 | 86 | 247 | 2.0 | 4.0 | 0.00 | 0.00 | 0.00 | 72 | 1065.3 |
| 20260906055027 | 86 | 230 | 2.0 | 3.0 | 0.00 | 0.00 | 0.00 | 72 | 1063.9 |
| 20260906054527 | 86 | 243 | 2.0 | 3.0 | 0.00 | 0.00 | 0.00 | 71 | 1062.8 |
| 20260906054026 | 86 | 243 | 2.0 | 3.0 | 0.00 | 0.00 | 0.00 | 71 | 1062.0 |
| 20260906053529 | 86 | 238 | 2.0 | 3.0 | 0.00 | 0.00 | 0.00 | 71 | 1061.1 |
| 20260906053047 | 86 | 244 | 2.0 | 3.0 | 0.00 | 0.00 | 0.00 | 71 | 1060.4 |
| 20260906052521 | 86 | 245 | 2.0 | 3.0 | 0.00 | 0.00 | 0.00 | 71 | 1060.0 |
| 20260906052042 | 86 | 237 | 2.0 | 3.0 | 0.00 | 0.00 | 0.00 | 71 | 1059.2 |
| 20260906051523 | 86 | 248 | 2.0 | 3.0 | 0.00 | 0.00 | 0.00 | 70 | 1058.4 |
| 20260906051021 | 86 | 234 | 2.0 | 3.0 | 0.00 | 0.00 | 0.00 | 70 | 1056.4 |
| 20260906050522 | 87 | 235 | 2.0 | 3.0 | 0.00 | 0.00 | 0.00 | 70 | 1055.4 |
| 20260906050042 | 87 | 236 | 2.0 | 3.0 | 0.00 | 0.00 | 0.00 | 69 | 1053.9 |
| 20260906045522 | 87 | 238 | 2.0 | 3.0 | 0.00 | 0.00 | 0.00 | 69 | 1051.9 |
| 20260906045021 | 87 | 233 | 2.0 | 2.0 | 0.00 | 0.00 | 0.00 | 69 | 1049.4 |
| 20260906044522 | 87 | 236 | 2.0 | 2.0 | 0.00 | 0.00 | 0.00 | 68 | 1048.1 |
| 20260906044023 | 87 | 240 | 2.0 | 3.0 | 0.00 | 0.00 | 0.00 | 68 | 1047.1 |
| 20260906043522 | 87 | 237 | 2.0 | 3.0 | 0.00 | 0.00 | 0.00 | 68 | 1044.8 |
| 20260906043023 | 88 | 243 | 2.0 | 3.0 | 0.00 | 0.00 | 0.00 | 67 | 1043.9 |
| 20260906042543 | 88 | 243 | 2.0 | 3.0 | 0.00 | 0.00 | 0.00 | 67 | 1042.3 |
| 20260906042022 | 88 | 238 | 2.0 | 2.0 | 0.00 | 0.00 | 0.00 | 66 | 1039.8 |
| 20260906041522 | 88 | 244 | 2.0 | 3.0 | 0.00 | 0.00 | 0.00 | 66 | 1038.9 |
| 20260906041023 | 88 | 240 | 2.0 | 2.0 | 0.00 | 0.00 | 0.00 | 66 | 1037.2 |
| 20260906040523 | 88 | 240 | 2.0 | 3.0 | 0.00 | 0.00 | 0.00 | 65 | 1035.6 |
| 20260906040023 | 88 | 242 | 2.0 | 3.0 | 0.00 | 0.00 | 0.00 | 65 | 1034.1 |
| 20260906035525 | 88 | 243 | 2.0 | 3.0 | 0.00 | 0.00 | 0.00 | 64 | 1032.3 |
| 20260906035021 | 89 | 240 | 2.0 | 3.0 | 0.00 | 0.00 | 0.00 | 64 | 1030.7 |
| 20260906034542 | 89 | 249 | 2.0 | 3.0 | 0.00 | 0.00 | 0.00 | 64 | 1029.4 |
| 20260906034041 | 89 | 248 | 2.0 | 3.0 | 0.00 | 0.00 | 0.00 | 63 | 1028.0 |
| 20260906033525 | 89 | 251 | 2.0 | 3.0 | 0.00 | 0.00 | 0.00 | 63 | 1026.4 |
| 20260906033023 | 89 | 250 | 2.0 | 3.0 | 0.00 | 0.00 | 0.00 | 62 | 1024.7 |
| 20260906032523 | 89 | 240 | 2.0 | 3.0 | 0.00 | 0.00 | 0.00 | 61 | 1022.6 |
| 20260906032024 | 89 | 252 | 2.0 | 4.0 | 0.00 | 0.00 | 0.00 | 61 | 1021.2 |
| 20260906031524 | 89 | 245 | 2.0 | 3.0 | 0.00 | 0.00 | 0.00 | 60 | 1019.3 |
| 20260906031021 | 89 | 241 | 2.0 | 2.0 | 0.00 | 0.00 | 0.00 | 59 | 1018.0 |
| 20260906030540 | 89 | 248 | 2.0 | 3.0 | 0.00 | 0.00 | 0.00 | 58 | 1017.4 |
| 20260906030040 | 89 | 253 | 2.0 | 3.0 | 0.00 | 0.00 | 0.00 | 58 | 1016.7 |
| 20260906025523 | 89 | 250 | 2.0 | 3.0 | 0.00 | 0.00 | 0.00 | 57 | 1016.2 |
| 20260906025021 | 89 | 249 | 2.0 | 3.0 | 0.00 | 0.00 | 0.00 | 57 | 1015.8 |
| 20260906024524 | 89 | 247 | 2.0 | 3.0 | 0.00 | 0.00 | 0.00 | 57 | 1015.5 |
| 20260906024025 | 89 | 247 | 2.0 | 3.0 | 0.00 | 0.00 | 0.00 | 57 | 1015.4 |
| 20260906023522 | 89 | 250 | 2.0 | 3.0 | 0.00 | 0.00 | 0.00 | 57 | 1015.5 |
| 20260906023021 | 89 | 242 | 2.0 | 3.0 | 0.00 | 0.00 | 0.00 | 57 | 1015.6 |
| 20260906022541 | 89 | 240 | 2.0 | 2.0 | 0.00 | 0.00 | 0.00 | 57 | 1015.3 |
| 20260906022041 | 89 | 240 | 2.0 | 2.0 | 0.00 | 0.00 | 0.00 | 56 | 1015.1 |
| 20260906021522 | 89 | 240 | 2.0 | 3.0 | 0.00 | 0.00 | 0.00 | 56 | 1014.9 |
| 20260906021022 | 89 | 238 | 2.0 | 3.0 | 0.00 | 0.00 | 0.00 | 56 | 1014.6 |
| 20260906020521 | 89 | 241 | 2.0 | 2.0 | 0.00 | 0.00 | 0.00 | 55 | 1014.3 |
| 20260906020022 | 90 | 238 | 2.0 | 2.0 | 0.00 | 0.00 | 0.00 | 55 | 1014.0 |
| 20260906015523 | 90 | 241 | 2.0 | 2.0 | 0.00 | 0.00 | 0.00 | 54 | 1013.9 |
| 20260906015042 | 90 | 241 | 2.0 | 2.0 | 0.00 | 0.00 | 0.00 | 54 | 1013.6 |
| 20260906014527 | 90 | 241 | 2.0 | 2.0 | 0.00 | 0.00 | 0.00 | 53 | 1013.4 |
| 20260906014102 | 91 | 243 | 2.0 | 2.0 | 0.00 | 0.00 | 0.00 | 53 | 1013.3 |
| 20260906013524 | 91 | 244 | 2.0 | 2.0 | 0.00 | 0.00 | 0.00 | 52 | 1013.0 |
| 20260906013042 | 91 | 237 | 1.0 | 2.0 | 0.00 | 0.00 | 0.00 | 52 | 1012.8 |
| 20260906012524 | 91 | 241 | 1.0 | 2.0 | 0.00 | 0.00 | 0.00 | 52 | 1012.6 |
| 20260906012043 | 91 | 239 | 1.0 | 2.0 | 0.00 | 0.00 | 0.00 | 51 | 1012.5 |
| 20260906011522 | 92 | 241 | 1.0 | 2.0 | 0.00 | 0.00 | 0.00 | 51 | 1012.4 |
| 20260906011024 | 92 | 241 | 1.0 | 2.0 | 0.00 | 0.00 | 0.00 | 51 | 1012.1 |
| 20260906010522 | 92 | 236 | 1.0 | 2.0 | 0.00 | 0.00 | 0.00 | 50 | 1012.0 |
| 20260906010023 | 92 | 251 | 1.0 | 2.0 | 0.00 | 0.00 | 0.00 | 50 | 1011.9 |
| 20260906005523 | 93 | 251 | 1.0 | 2.0 | 0.00 | 0.00 | 0.00 | 50 | 1011.9 |
| 20260906005043 | 93 | 258 | 2.0 | 2.0 | 0.00 | 0.00 | 0.00 | 50 | 1011.8 |
| 20260906004522 | 93 | 260 | 1.0 | 2.0 | 0.00 | 0.00 | 0.00 | 49 | 1011.5 |
| 20260906004027 | 94 | 262 | 1.0 | 2.0 | 0.00 | 0.00 | 0.00 | 49 | 1011.2 |
| 20260906003520 | 94 | 261 | 1.0 | 2.0 | 0.00 | 0.00 | 0.00 | 48 | 1011.0 |
| 20260906003020 | 94 | 267 | 1.0 | 2.0 | 0.00 | 0.00 | 0.00 | 48 | 1010.9 |
| 20260906002521 | 95 | 268 | 1.0 | 2.0 | 0.00 | 0.00 | 0.00 | 47 | 1010.7 |
| 20260906002021 | 95 | 270 | 1.0 | 2.0 | 0.00 | 0.00 | 0.00 | 47 | 1010.7 |
| 20260906001523 | 95 | 269 | 1.0 | 2.0 | 0.00 | 0.00 | 0.00 | 46 | 1010.3 |
| 20260906001123 | 95 | 270 | 1.0 | 1.0 | 0.00 | 0.00 | 0.00 | 46 | 1010.3 |
| 20260906000543 | 96 | 270 | 0.0 | 1.0 | 0.00 | 0.00 | 0.00 | 45 | 1010.1 |
| 20260906000023 | 96 | 273 | 1.0 | 1.0 | 0.00 | 0.00 | 0.00 | 45 | 1009.9 |
| 20260905235522 | 96 | 277 | 1.0 | 2.0 | 0.00 | 0.00 | 0.00 | 44 | 1009.8 |
| 20260905235021 | 96 | 281 | 1.0 | 2.0 | 0.00 | 0.00 | 0.00 | 44 | 1009.7 |
| 20260905234522 | 96 | 283 | 2.0 | 3.0 | 0.00 | 0.00 | 0.00 | 44 | 1009.7 |
| 20260905234021 | 96 | 280 | 1.0 | 2.0 | 0.00 | 0.00 | 0.00 | 44 | 1009.7 |
| 20260905233521 | 97 | 276 | 1.0 | 2.0 | 0.00 | 0.00 | 0.00 | 43 | 1009.6 |
| 20260905233041 | 97 | 277 | 1.0 | 2.0 | 0.00 | 0.00 | 0.00 | 43 | 1009.5 |
| 20260905232524 | 97 | 273 | 1.0 | 1.0 | 0.00 | 0.00 | 0.00 | 43 | 1009.4 |
| 20260905232025 | 97 | 273 | 1.0 | 2.0 | 0.00 | 0.00 | 0.00 | 43 | 1009.4 |
| 20260905231541 | 97 | 275 | 1.0 | 2.0 | 0.00 | 0.00 | 0.00 | 42 | 1009.3 |
| 20260905231023 | 97 | 279 | 1.0 | 3.0 | 0.00 | 0.00 | 0.00 | 42 | 1009.2 |
| 20260905230523 | 98 | 277 | 1.0 | 3.0 | 0.00 | 0.00 | 0.00 | 42 | 1009.1 |
| 20260905230042 | 98 | 278 | 2.0 | 4.0 | 0.00 | 0.00 | 0.00 | 41 | 1009.0 |
| 20260905225522 | 98 | 282 | 1.0 | 2.0 | 0.00 | 0.00 | 0.00 | 41 | 1008.8 |
| 20260905225023 | 99 | 281 | 2.0 | 3.0 | 0.00 | 0.00 | 0.00 | 40 | 1008.6 |
| 20260905224522 | 99 | 282 | 1.0 | 3.0 | 0.00 | 0.00 | 0.00 | 41 | 1008.7 |
| 20260905224022 | 99 | 286 | 1.0 | 2.0 | 0.00 | 0.00 | 0.00 | 41 | 1008.7 |
| 20260905223522 | 99 | 286 | 0.0 | 2.0 | 0.00 | 0.00 | 0.00 | 41 | 1008.8 |
| 20260905223022 | 99 | 287 | 1.0 | 3.0 | 0.00 | 0.00 | 0.00 | 41 | 1008.9 |
| 20260905222522 | 99 | 281 | 1.0 | 2.0 | 0.00 | 0.00 | 0.00 | 42 | 1009.0 |
| 20260905222022 | 99 | 283 | 2.0 | 3.0 | 0.00 | 0.00 | 0.00 | 41 | 1008.9 |
| 20260905221522 | 100 | 288 | 1.0 | 3.0 | 0.00 | 0.00 | 0.00 | 41 | 1008.9 |
| 20260905221043 | 100 | 287 | 1.0 | 2.0 | 0.00 | 0.00 | 0.00 | 40 | 1008.6 |
| 20260905220523 | 101 | 289 | 1.0 | 3.0 | 0.00 | 0.00 | 0.00 | 40 | 1008.6 |
| 20260905220022 | 101 | 288 | 1.0 | 4.0 | 0.00 | 0.00 | 0.00 | 40 | 1008.6 |
| 20260905215520 | 101 | 293 | 1.0 | 2.0 | 0.00 | 0.00 | 0.00 | 39 | 1008.6 |
| 20260905215020 | 101 | 280 | 1.0 | 2.0 | 0.00 | 0.00 | 0.00 | 39 | 1008.5 |
| 20260905214523 | 101 | 288 | 1.0 | 3.0 | 0.00 | 0.00 | 0.00 | 39 | 1008.5 |
| 20260905214023 | 101 | 288 | 1.0 | 3.0 | 0.00 | 0.00 | 0.00 | 39 | 1008.5 |
| 20260905213523 | 101 | 294 | 1.0 | 3.0 | 0.00 | 0.00 | 0.00 | 39 | 1008.5 |
| 20260905213026 | 101 | 275 | 1.0 | 3.0 | 0.00 | 0.00 | 0.00 | 39 | 1008.5 |
| 20260905212545 | 101 | 291 | 1.0 | 3.0 | 0.00 | 0.00 | 0.00 | 39 | 1008.5 |
| 20260905212022 | 101 | 287 | 1.0 | 3.0 | 0.00 | 0.00 | 0.00 | 38 | 1008.3 |
| 20260905211520 | 100 | 280 | 1.0 | 3.0 | 0.00 | 0.00 | 0.00 | 37 | 1008.2 |
| 20260905211022 | 100 | 285 | 1.0 | 5.0 | 0.00 | 0.00 | 0.00 | 38 | 1008.3 |
| 20260905210521 | 100 | 251 | 1.0 | 3.0 | 0.00 | 0.00 | 0.00 | 38 | 1008.4 |
| 20260905210020 | 100 | 224 | 1.0 | 4.0 | 0.00 | 0.00 | 0.00 | 39 | 1008.5 |
| 20260905205524 | 101 | 163 | 1.0 | 5.0 | 0.00 | 0.00 | 0.00 | 38 | 1008.4 |
| 20260905205022 | 102 | 152 | 2.0 | 5.0 | 0.00 | 0.00 | 0.00 | 37 | 1008.1 |
| 20260905204527 | 102 | 251 | 1.0 | 5.0 | 0.00 | 0.00 | 0.00 | 36 | 1008.0 |
| 20260905204022 | 102 | 274 | 1.0 | 2.0 | 0.00 | 0.00 | 0.00 | 36 | 1008.0 |
| 20260905203523 | 102 | 265 | 1.0 | 2.0 | 0.00 | 0.00 | 0.00 | 36 | 1008.1 |
| 20260905203021 | 102 | 295 | 1.0 | 3.0 | 0.00 | 0.00 | 0.00 | 36 | 1008.0 |
| 20260905202521 | 102 | 289 | 1.0 | 3.0 | 0.00 | 0.00 | 0.00 | 35 | 1007.8 |
| 20260905202022 | 101 | 294 | 2.0 | 4.0 | 0.00 | 0.00 | 0.00 | 35 | 1007.8 |
| 20260905201526 | 101 | 293 | 2.0 | 4.0 | 0.00 | 0.00 | 0.00 | 36 | 1008.1 |
| 20260905201042 | 101 | 291 | 2.0 | 3.0 | 0.00 | 0.00 | 0.00 | 36 | 1008.2 |
| 20260905200522 | 101 | 292 | 2.0 | 5.0 | 0.00 | 0.00 | 0.00 | 36 | 1008.2 |
| 20260905200021 | 101 | 281 | 0.0 | 2.0 | 0.00 | 0.00 | 0.00 | 37 | 1008.5 |
| 20260905195521 | 101 | 245 | 1.0 | 2.0 | 0.00 | 0.00 | 0.00 | 36 | 1008.3 |
| 20260905195045 | 102 | 287 | 2.0 | 4.0 | 0.00 | 0.00 | 0.00 | 36 | 1008.3 |
| 20260905194522 | 102 | 289 | 2.0 | 6.0 | 0.00 | 0.00 | 0.00 | 35 | 1008.3 |
| 20260905194024 | 102 | 290 | 1.0 | 4.0 | 0.00 | 0.00 | 0.00 | 35 | 1008.4 |
| 20260905193523 | 102 | 272 | 1.0 | 2.0 | 0.00 | 0.00 | 0.00 | 36 | 1008.6 |
| 20260905193040 | 102 | 217 | 1.0 | 4.0 | 0.00 | 0.00 | 0.00 | 36 | 1008.6 |
| 20260905192523 | 102 | 290 | 2.0 | 4.0 | 0.00 | 0.00 | 0.00 | 36 | 1008.6 |
| 20260905192022 | 102 | 287 | 1.0 | 4.0 | 0.00 | 0.00 | 0.00 | 36 | 1008.7 |
| 20260905191523 | 103 | 298 | 2.0 | 3.0 | 0.00 | 0.00 | 0.00 | 36 | 1008.7 |
| 20260905191022 | 103 | 296 | 2.0 | 4.0 | 0.00 | 0.00 | 0.00 | 35 | 1008.6 |
| 20260905190522 | 103 | 269 | 1.0 | 4.0 | 0.00 | 0.00 | 0.00 | 35 | 1008.6 |
| 20260905190023 | 103 | 278 | 1.0 | 3.0 | 0.00 | 0.00 | 0.00 | 35 | 1008.7 |
| 20260905185524 | 103 | 279 | 1.0 | 4.0 | 0.00 | 0.00 | 0.00 | 34 | 1008.4 |
| 20260905185022 | 103 | 296 | 2.0 | 3.0 | 0.00 | 0.00 | 0.00 | 34 | 1008.4 |
| 20260905184524 | 104 | 298 | 1.0 | 2.0 | 0.00 | 0.00 | 0.00 | 36 | 1008.9 |
| 20260905184020 | 104 | 242 | 1.0 | 2.0 | 0.00 | 0.00 | 0.00 | 36 | 1009.0 |
| 20260905183520 | 104 | 289 | 1.0 | 3.0 | 0.00 | 0.00 | 0.00 | 36 | 1008.8 |